User: anonymous   Login
Location: Betra
(48.4113°N, 8.6634°E)
Time: 08:25:30
(UTC+00:00)
Language:

YAOGAN 6 - Orbit

View from above orbital plane
View from above orbital plane
View from above satellite
View from above satellite

Ground track
Ground track

The orbit data is extracted from the following two-line orbital elements,

1 34839U 09021A   24200.89823389  .00031080  00000-0  55924-3 0  9997
2 34839  97.1709 168.1817 0018861  67.8512 292.4739 15.49575252848345
Epoch (UTC): 18 July 2024 21:33:27
Eccentricity: 0.0018861
inclination: 97.1709°
perigee height: 405 km
apogee height: 431 km
right ascension of ascending node: 168.1817°
argument of perigee: 67.8512°
revolutions per day: 15.49575252
mean anomaly at epoch: 292.4739°
orbit number at epoch: 84834

The dashed part of the orbit path shows where the satellite is in the earth's shadow,  

DLR